Location: El Águila
(10.4167°N, 66.7167°W)
Time: 03:51:37
(UTC+00:00)

COSMOS 2455 - Pass Details

Date: 02 October 2022
Orbit: 900 x 909 km, 67.1° (Epoch: 04 December)

Event Time Altitude Azimuth Distance (km) Brightness Sun altitude
Rises 23:08:42 0° 174° (S) 3,509 5.9 -13.6°
Reaches altitude 10° 23:11:38 10° 161° (SSE) 2,569 5.0 -14.3°
Maximum altitude 23:16:24 25° 107° (ESE) 1,726 3.8 -15.5°
Enters shadow 23:17:34 24° 89° (E) 1,789 3.8 -15.8°
